Terug naar catalogus

STARLINK-37602

ActiefCommunicatieVLEO
NORAD 69358·PAYLOAD·🇺🇸 United States

Gelanceerd Jun 4, 2026 vanaf Cape Canaveral Space Force Station

Loading…

Volgende Passages (komende 24 uur)

TLE

VersSource: CelesTrak SupGP

Epoch: Sep 14, 2026, 21:29 UTC

1 69358C 26123F   26257.89562500 -.00036522  00000+0 -10788-2 0  2574
2 69358  53.1592 168.2058 0001292  82.7461 359.0308 15.34416714    15

Volg STARLINK-37602 in realtime met AllMySat

Download on the App Store